Regional Weather Roundup
Issued by NWS

Home | Current Version | Previous Version | Graphics & Text | Print | Product List | Glossary On
Versions: 1 2 3 4 5 6 7 8 9 10 11 12 13 14 15 16 17 18 19 20 21 22 23 24 25 26 27 28 29 30 31 32 33 34 35 36 37 38 39 40 41 42 43 44 45 46 47 48 49 50
000
ASUS45 KCYS 040310
RWRWY

WYOMING REGIONAL WEATHER ROUNDUP
NATIONAL WEATHER SERVICE CHEYENNE WY
800 PM MST TUE MAR 03 2015

NOTE:  "FAIR" INDICATES FEW OR NO CLOUDS BELOW 12,000 FEET
WITH NO SIGNIFICANT WEATHER AND/OR OBSTRUCTIONS TO VISIBILITY.

WYZ001-040400-
YELLOWSTONE NATIONAL PARK

CITY           SKY/WX    TMP DP  RH WIND       PRES   REMARKS
LK YELLOWSTONE   N/A     -1  -8  72 CALM      29.83R
W YELLOWSTONE  NOT AVBL

$$
WYZ002>013-054>058-071-098>099-040400-
NORTHERN WYOMING

CITY           SKY/WX    TMP DP  RH WIND       PRES   REMARKS
JACKSON        MOCLDY    16  -2  45 SW8       29.85R WCI   5
CODY           FAIR       7  -2  66 W3        29.97R
GREYBULL       FAIR      12   0  58 W10       30.03R WCI  -1
WORLAND        FAIR       5   0  79 E3        30.01R
SHERIDAN       FAIR      -2 -10  69 SE5       30.01R WCI -12
BUFFALO        FAIR       1  -5  75 SW7       29.94R WCI -12
GILLETTE       FAIR       0  -6  76 W7        29.97R WCI -13
HULETT         FAIR       5  -4  66 SW8       29.96S WCI  -8
NEWCASTLE      FAIR       9   0  66 N7        29.99R WCI  -3

$$
WYZ014>020-022>026-101>103-040400-
CENTRAL WYOMING

CITY           SKY/WX    TMP DP  RH WIND       PRES   REMARKS
BIG PINEY      FAIR      15   0  51 N13       29.81R WCI   1
PINEDALE       FAIR       7   0  72 NW7       29.81R WCI  -5
DUBOIS         FAIR       0  -4  85 CALM      29.79R
LANDER         CLOUDY     7   1  76 CALM      29.90R
RIVERTON       CLOUDY     7   0  73 MISG      29.92R
CASPER         FAIR      -8 -12  83 W3        29.93R
DOUGLAS        MOCLDY     0  -3  87 CALM      29.97R

$$
WYZ021-027>030-104>119-040400-
SOUTHERN WYOMING

CITY           SKY/WX    TMP DP  RH WIND       PRES   REMARKS
EVANSTON       MOCLDY    13   8  81 W8        29.87R WCI   2
FORT BRIDGER   FAIR      15  13  88 W8        29.89R WCI   5
ROCK SPRINGS   FAIR       9   4  80 CALM      29.82R
DIXON          CLOUDY    16  12  86 N3        29.83R
RAWLINS        CLOUDY     8   4  83 E3        29.80S
SARATOGA       LGT SNOW   9   7  92 CALM      29.80R
LARAMIE        CLOUDY     3   0  87 NW10      29.75R WCI -12
CHEYENNE       CLOUDY     9   4  80 N9        29.84R HAZE    WCI  -4
TORRINGTON     CLOUDY    14   9  80 N3        29.99R
PINE BLUFFS    LGT SNOW  12   9  85 N8        29.92R WCI   1

$$


USA.gov is the U.S. government's official web portal to all federal, state and local government web resources and services.